Waarnemingen

Advertentie
Mijn weer
Hoogeveen aws, Nederland (6279): temperatuur & dauwpunt: 20.05.2018 23:00:00 - 26.05.2018 23:00:00 (CEST)Hoogeveen aws, Nederland (6279): temperatuur 5cm: 20.05.2018 23:00:00 - 26.05.2018 23:00:00 (CEST)Hoogeveen aws, Nederland (6279): windsnelheid & windstoten: 20.05.2018 23:00:00 - 26.05.2018 23:00:00 (CEST)Hoogeveen aws, Nederland (6279): windrichting: 20.05.2018 23:00:00 - 26.05.2018 23:00:00 (CEST)Hoogeveen aws, Nederland (6279): luchtdruk: 20.05.2018 23:00:00 - 26.05.2018 23:00:00 (CEST)Hoogeveen aws, Nederland (6279): zicht: 20.05.2018 23:00:00 - 26.05.2018 23:00:00 (CEST)Hoogeveen aws, Nederland (6279): neerslag: 20.05.2018 23:00:00 - 26.05.2018 23:00:00 (CEST)
Datum & Tijd tt [°C] td [°C] tt 5cm [°C] ff [km/u] ff [kn] fx [km/u] fx [kn] dd ppp [hPa] vv [km] rr [mm]
26.05.2018 23:00:00 19,3 12,0 18,2 14 8 22 12 NO 1021,5 47 0,0
26.05.2018 22:00:00 21,8 10,8 20,8 18 10 29 16 NO 1021,4 49 0,0
26.05.2018 21:00:00 23,5 11,9 22,7 22 12 32 18 NO 1020,9 45 0,0
26.05.2018 20:00:00 25,4 10,9 24,6 18 10 29 16 ONO 1020,6 38 0,0
26.05.2018 19:00:00 26,7 9,5 26,4 18 10 25 14 O 1020,4 36 0,0
26.05.2018 18:00:00 27,3 12,3 27,7 14 8 25 14 ONO 1020,4 34 0,0
26.05.2018 17:00:00 27,3 10,4 28,3 18 10 29 16 O 1020,7 39 0,0
26.05.2018 16:00:00 27,2 10,5 28,8 18 10 29 16 O 1021,0 36 0,0
26.05.2018 15:00:00 26,8 13,3 28,4 14 8 29 16 OZO 1021,1 31 0,0
26.05.2018 14:00:00 26,1 13,1 27,9 18 10 25 14 ONO 1021,4 30 0,0
26.05.2018 13:00:00 24,6 13,1 26,6 14 8 25 14 ONO 1021,7 27 0,0
26.05.2018 12:00:00 23,5 14,2 25,1 14 8 22 12 NO 1021,8 29 0,0
26.05.2018 11:00:00 21,6 13,8 23,1 14 8 22 12 ONO 1021,7 30 0,0
26.05.2018 10:00:00 19,6 12,4 20,9 14 8 22 12 NO 1021,6 34 0,0
26.05.2018 09:00:00 17,6 11,4 17,3 14 8 22 12 ONO 1021,6 36 0,0
26.05.2018 08:00:00 15,6 11,2 15,5 11 6 14 8 ONO 1021,4 45 0,0
26.05.2018 07:00:00 15,2 10,5 14,5 11 6 14 8 ONO 1020,9 46 0,0
26.05.2018 06:00:00 15,2 10,5 14,1 11 6 14 8 ONO 1020,4 45 0,0
26.05.2018 05:00:00 15,4 10,4 14,0 7 4 14 8 ONO 1020,3 49 0,0
26.05.2018 04:00:00 16,2 10,7 15,4 11 6 14 8 ONO 1020,4 45 0,0
26.05.2018 03:00:00 16,7 10,6 15,8 11 6 18 10 ONO 1020,5 49 0,0
26.05.2018 02:00:00 17,1 10,6 15,9 14 8 22 12 ONO 1020,4 46 0,0
26.05.2018 01:00:00 17,2 12,0 16,1 11 6 18 10 ONO 1020,4 43 0,0
26.05.2018 00:00:00 17,3 14,1 15,9 11 6 18 10 NO 1020,0 24 0,0
25.05.2018 23:00:00 17,8 15,6 16,0 7 4 7 4 NO 1019,8 23 0,0
25.05.2018 22:00:00 19,9 16,9 18,9 4 2 7 4 N 1019,6 26 0,0
25.05.2018 21:00:00 21,2 17,3 20,7 4 2 7 4 NNW 1019,1 31 0,0
25.05.2018 20:00:00 22,3 16,9 21,4 4 2 14 8 ZZW 1018,8 32 0,0
25.05.2018 19:00:00 23,4 14,7 22,9 7 4 22 12 OZO 1018,6 39 0,0
25.05.2018 18:00:00 23,9 13,9 23,7 14 8 25 14 OZO 1018,7 39 0,0
25.05.2018 17:00:00 23,7 14,4 23,5 14 8 29 16 OZO 1018,8 37 0,0
25.05.2018 16:00:00 24,4 14,7 24,3 22 12 36 19 OZO 1018,9 37 0,0
25.05.2018 15:00:00 23,5 14,8 24,3 22 12 32 18 O 1018,9 20 0,0
25.05.2018 14:00:00 23,1 14,5 23,0 18 10 36 19 O 1019,0 6 0,0
25.05.2018 13:00:00 22,0 14,3 23,9 22 12 29 16 O 1019,4 11 0,0
25.05.2018 12:00:00 19,7 13,4 20,4 14 8 25 14 O 1019,6 4,2 0,0
25.05.2018 11:00:00 18,8 13,5 19,3 14 8 25 14 O 1019,6 10 0,0
25.05.2018 10:00:00 17,8 12,7 17,9 14 8 22 12 O 1019,4 36 0,0
25.05.2018 09:00:00 17,5 12,6 17,5 14 8 22 12 O 1019,3 36 0,0
25.05.2018 08:00:00 17,0 11,8 16,6 14 8 22 12 O 1019,0 44 0,0
25.05.2018 07:00:00 17,6 12,1 17,4 14 8 22 12 O 1018,6 40 0,0
25.05.2018 06:00:00 16,5 12,7 15,8 7 4 18 10 O 1018,4 39 0,0
25.05.2018 05:00:00 17,2 13,4 16,5 11 6 22 12 O 1018,3 21 0,0
25.05.2018 04:00:00 16,7 14,1 15,6 7 4 14 8 O 1018,3 17 0,0
25.05.2018 03:00:00 16,9 14,3 16,5 11 6 25 14 ONO 1018,7 23 0,0
25.05.2018 02:00:00 18,1 13,2 17,6 18 10 29 16 O 1019,0 40 0,0
25.05.2018 01:00:00 18,1 13,9 17,4 14 8 25 14 OZO 1019,3 19 0,0
25.05.2018 00:00:00 17,9 14,4 17,4 11 6 32 18 ZO 1019,3 23 0,0
24.05.2018 23:00:00 19,3 13,6 18,8 18 10 29 16 ZO 1019,6 30 0,0
24.05.2018 22:00:00 19,2 13,7 18,4 7 4 14 8 OZO 1019,2 36 0,0
24.05.2018 21:00:00 19,5 13,6 18,5 7 4 14 8 O 1018,7 31 0,0
24.05.2018 20:00:00 19,7 13,6 19,2 7 4 22 12 OZO 1018,6 30 0,0
24.05.2018 19:00:00 20,6 13,0 20,1 18 10 40 21 OZO 1019,0 30 0,0
24.05.2018 18:00:00 21,2 13,2 21,0 25 14 50 27 OZO 1019,1 34 0,0
24.05.2018 17:00:00 22,6 11,9 22,2 32 18 43 23 OZO 1019,2 35 0,0
24.05.2018 16:00:00 23,2 11,5 22,9 18 10 29 16 O 1019,5 39 0,0
24.05.2018 15:00:00 22,6 9,2 22,3 25 14 47 25 OZO 1020,1 45 0,0
24.05.2018 14:00:00 24,0 10,9 24,1 25 14 43 23 O 1020,3 43 0,0
24.05.2018 13:00:00 23,7 10,9 24,7 32 18 47 25 O 1020,5 33 0,0
24.05.2018 12:00:00 22,2 11,9 23,7 25 14 36 19 ONO 1021,0 29 0,0
24.05.2018 11:00:00 20,4 11,2 21,8 22 12 32 18 ONO 1021,5 39 0,0
24.05.2018 10:00:00 18,7 10,2 19,9 18 10 29 16 ONO 1021,8 34 0,0
24.05.2018 09:00:00 17,1 9,4 17,9 18 10 29 16 ONO 1021,8 33 0,0
24.05.2018 08:00:00 15,7 9,0 16,1 14 8 22 12 ONO 1022,1 39 0,0
24.05.2018 07:00:00 13,8 8,1 13,4 14 8 18 10 NO 1022,2 39 0,0
24.05.2018 06:00:00 12,0 7,7 11,0 11 6 14 8 NO 1022,3 50 0,0
24.05.2018 05:00:00 12,3 7,7 11,3 11 6 18 10 NO 1022,5 48 0,0
24.05.2018 04:00:00 12,9 8,3 11,4 11 6 14 8 NO 1022,8 47 0,0
24.05.2018 03:00:00 13,3 9,0 11,9 11 6 18 10 ONO 1022,8 49 0,0
24.05.2018 02:00:00 14,6 9,5 13,4 14 8 22 12 NO 1023,0 49 0,0
24.05.2018 01:00:00 15,3 10,2 14,4 14 8 22 12 NO 1022,9 49 0,0
24.05.2018 00:00:00 15,9 10,6 15,2 14 8 22 12 NO 1022,7 48 0,0
23.05.2018 23:00:00 17,0 10,7 16,2 14 8 22 12 NNO 1022,5 49 0,0
23.05.2018 22:00:00 18,2 10,4 17,6 14 8 25 14 NNO 1022,3 45 0,0
23.05.2018 21:00:00 20,2 8,6 19,2 14 8 29 16 NO 1021,8 49 0,0
23.05.2018 20:00:00 21,8 9,6 21,0 18 10 32 18 ONO 1021,6 44 0,0
23.05.2018 19:00:00 23,4 9,1 22,9 22 12 32 18 ONO 1021,0 41 0,0
23.05.2018 18:00:00 23,9 8,7 24,0 22 12 29 16 ONO 1021,2 34 0,0
23.05.2018 17:00:00 23,5 10,0 23,9 18 10 32 18 O 1021,2 32 0,0
23.05.2018 16:00:00 23,3 10,6 23,9 22 12 36 19 O 1021,5 31 0,0
23.05.2018 15:00:00 22,9 10,0 23,3 22 12 36 19 O 1021,6 39 0,0
23.05.2018 14:00:00 22,0 13,8 21,8 14 8 32 18 ONO 1021,7 27 0,0
23.05.2018 13:00:00 21,5 11,7 21,6 18 10 32 18 ONO 1021,6 34 0,0
23.05.2018 12:00:00 21,1 13,3 22,2 22 12 29 16 NO 1021,1 33 0,0
23.05.2018 11:00:00 20,5 13,5 21,5 18 10 29 16 NO 1020,8 36 0,0
23.05.2018 10:00:00 19,1 13,2 19,4 14 8 25 14 NO 1020,5 35 0,0
23.05.2018 09:00:00 16,9 12,5 17,4 14 8 25 14 NO 1020,1 38 0,0
23.05.2018 08:00:00 15,5 12,6 15,4 11 6 18 10 NNO 1019,6 28 0,0
23.05.2018 07:00:00 14,6 12,6 14,3 11 6 18 10 NNO 1018,9 25 0,1
23.05.2018 06:00:00 14,6 12,1 14,3 14 8 25 14 NNO 1018,5 32 0,0
23.05.2018 05:00:00 14,8 12,4 14,6 18 10 25 14 NNO 1017,9 22 0,4
23.05.2018 04:00:00 15,3 13,0 14,8 18 10 25 14 NO 1017,8 15 0,6
23.05.2018 03:00:00 14,7 13,7 14,4 4 2 7 4 O 1017,6 20 0,0
23.05.2018 02:00:00 14,7 13,9 14,4 4 2 14 8 NNO 1017,4 21 0,3
23.05.2018 01:00:00 14,8 14,3 14,7 4 2 7 4 N 1017,2 9 0,3
23.05.2018 00:00:00 15,2 13,6 14,9 7 4 14 8 ZO 1017,1 36 0,0
22.05.2018 23:00:00 15,7 13,3 15,0 7 4 22 12 O 1016,1 42 1,2
22.05.2018 22:00:00 15,9 13,5 15,3 22 12 40 21 ONO 1016,1 9 1,7
22.05.2018 21:00:00 17,4 14,0 17,0 18 10 25 14 ONO 1015,3 19 0,0
22.05.2018 20:00:00 18,8 14,1 18,2 14 8 29 16 N 1014,1 34 0,4
22.05.2018 19:00:00 19,3 13,0 18,2 14 8 29 16 OZO 1013,8 8 1,6
22.05.2018 18:00:00 23,7 10,3 23,9 18 10 25 14 NNO 1013,1 42 0,0
22.05.2018 17:00:00 24,5 9,8 26,9 14 8 25 14 ONO 1013,0 33 0,0
22.05.2018 16:00:00 24,4 10,3 26,8 18 10 29 16 O 1013,2 31 0,0
22.05.2018 15:00:00 24,1 10,3 25,9 18 10 29 16 NO 1013,2 28 0,0
22.05.2018 14:00:00 23,8 9,7 26,8 18 10 32 18 ONO 1013,4 32 0,0
22.05.2018 13:00:00 22,6 8,9 25,5 18 10 32 18 O 1013,6 32 0,0
22.05.2018 12:00:00 22,0 10,0 24,1 14 8 25 14 O 1013,5 31 0,0
22.05.2018 11:00:00 20,1 9,7 22,4 14 8 22 12 O 1013,7 35 0,0
22.05.2018 10:00:00 18,1 9,9 19,6 11 6 18 10 NO 1013,8 28 0,0
22.05.2018 09:00:00 17,1 9,5 17,0 11 6 18 10 ONO 1013,7 40 0,0
22.05.2018 08:00:00 14,7 8,6 14,5 14 8 22 12 ONO 1013,5 37 0,0
22.05.2018 07:00:00 13,8 8,0 12,9 14 8 18 10 O 1013,5 39 0,0
22.05.2018 06:00:00 12,5 7,6 10,4 7 4 14 8 O 1013,4 42 0,0
22.05.2018 05:00:00 11,9 7,7 9,8 11 6 11 6 ONO 1013,3 48 0,0
22.05.2018 04:00:00 12,3 7,2 9,9 7 4 11 6 NO 1013,2 46 0,0
22.05.2018 03:00:00 12,8 7,0 10,2 7 4 11 6 ONO 1013,3 48 0,0
22.05.2018 02:00:00 13,0 7,0 10,5 11 6 11 6 NO 1013,5 44 0,0
22.05.2018 01:00:00 14,2 7,1 12,3 11 6 14 8 ONO 1013,5 50 0,0
22.05.2018 00:00:00 14,9 7,2 12,7 11 6 18 10 ONO 1013,8 50 0,0
21.05.2018 23:00:00 15,9 7,5 13,3 7 4 18 10 ONO 1014,2 47 0,0
21.05.2018 22:00:00 17,9 6,8 14,5 11 6 14 8 O 1014,2 48 0,0
21.05.2018 21:00:00 20,5 6,5 19,0 11 6 25 14 O 1014,0 49 0,0
21.05.2018 20:00:00 22,3 6,5 21,6 18 10 32 18 O 1014,0 39 0,0
21.05.2018 19:00:00 23,0 6,4 23,1 25 14 32 18 O 1014,2 42 0,0
21.05.2018 18:00:00 23,5 6,9 24,2 22 12 40 21 O 1014,5 38 0,0
21.05.2018 17:00:00 23,9 6,6 24,8 25 14 40 21 O 1014,9 40 0,0
21.05.2018 16:00:00 24,1 6,5 25,4 32 18 47 25 ONO 1015,4 29 0,0
21.05.2018 15:00:00 24,1 6,4 25,7 29 16 43 23 O 1016,0 28 0,0
21.05.2018 14:00:00 23,1 7,4 24,9 29 16 47 25 O 1016,6 37 0,0
21.05.2018 13:00:00 22,9 8,6 24,6 25 14 43 23 O 1017,4 37 0,0
21.05.2018 12:00:00 21,7 9,0 23,4 29 16 40 21 O 1018,2 32 0,0
21.05.2018 11:00:00 20,7 9,0 22,4 22 12 36 19 O 1018,7 29 0,0
21.05.2018 10:00:00 19,0 8,1 20,0 22 12 32 18 O 1019,1 33 0,0
21.05.2018 09:00:00 16,8 7,0 17,5 22 12 29 16 O 1019,6 35 0,0
21.05.2018 08:00:00 14,9 5,7 15,2 18 10 25 14 O 1019,9 32 0,0
21.05.2018 07:00:00 12,8 5,3 12,1 11 6 18 10 ONO 1020,1 35 0,0
21.05.2018 06:00:00 11,0 5,0 9,8 11 6 18 10 ONO 1020,3 49 0,0
21.05.2018 05:00:00 11,7 4,9 9,8 14 8 18 10 ONO 1020,4 50 0,0
21.05.2018 04:00:00 12,7 5,2 11,4 14 8 25 14 O 1020,8 50 0,0
21.05.2018 03:00:00 14,3 4,8 13,1 18 10 25 14 O 1020,7 50 0,0
21.05.2018 02:00:00 14,1 4,8 11,1 14 8 22 12 ONO 1021,0 47 0,0
21.05.2018 01:00:00 12,2 5,2 9,3 11 6 11 6 NO 1021,2 50 0,0
21.05.2018 00:00:00 13,9 4,9 11,3 11 6 18 10 ONO 1021,4 50 0,0
20.05.2018 23:00:00 16,6 3,8 13,7 11 6 18 10 O 1021,5 50 0,0

tt = temperatuur
td = dauwpunt
tt 5cm = temperatuur 5cm
ff = windsnelheid
fx = windstoten
dd = windrichting
ppp = luchtdruk
vv = zicht
rr = neerslag

Weerstations in de omgeving